Hourly Data Report for April 17, 2016

All times are specified in Local Standard Time (LST). Add 1 hour to adjust for Daylight Saving Time where and when it is observed.

EMERSON AUTO
MANITOBA

49°00'00.000" N
97°14'15.000" W
242.00 m
5020881
71560
WEX

Download Data

Hourly Data (April 2016)
Hourly Data Report for April 17, 2016
Temp Definition
°C
Dew Point Temp Definition
°C
Rel Hum Definition
%
Wind Dir Definition
10's deg

Wind Spd Definition
km/h
Visibility Definition
km
Stn Press Definition
kPa
Hmdx Definition


Wind Chill Definition


Weather Definition


TIME
00:00 3.2 3.2 100 34 16   99.43     LegendNANA
01:00 3.3 3.3 100 36 20   99.48     LegendNANA
02:00 3.4 3.4 100 35 16   99.53     LegendNANA
03:00 3.2 3.2 100 36 17   99.50     LegendNANA
04:00 3.5 3.5 100 4 21   99.55     LegendNANA
05:00 3.6 3.6 100 2 14   99.60     LegendNANA
06:00 3.6 3.6 100 2 13   99.66     LegendNANA
07:00 3.7 3.7 100 2 11   99.70     LegendNANA
08:00 3.7 3.7 100 36 12   99.77     LegendNANA
09:00 4.0 4.0 100 1 17   99.81     LegendNANA
10:00 4.3 4.3 100 2 16   99.84     LegendNANA
11:00 4.4 4.4 100 1 17   99.89     LegendNANA
12:00 4.8 4.6 98 2 20   99.90     LegendNANA
13:00 5.2 4.3 94 4 19   99.90     LegendNANA
14:00 5.0 4.6 97 1 16   99.94     LegendNANA
15:00 4.6 4.4 98 1 20   99.95     LegendNANA
16:00 4.4 4.1 98 2 20   99.98     LegendNANA
17:00 4.2 4.1 99 2 22   99.99     LegendNANA
18:00 4.1 3.9 98 3 23   100.05     LegendNANA
19:00 4.0 3.8 98 4 21   100.05     LegendNANA
20:00 3.6 3.5 99 3 20   100.07     LegendNANA
21:00 3.4 3.0 97 3 19   100.15     LegendNANA
22:00 3.2 3.0 99 3 16   100.13     LegendNANA
23:00 3.2 2.9 99 2 15   100.15     LegendNANA

Notes on Data Quality.

Legend

  • E = Estimated
  • M = Missing
  • NA = Not Available
  • ‡ = Partner data that is not subject to review by the National Climate Archives
Date modified: